Wetterdaten: aktuell Samstag, 23.06.2018 18:09
Datum Zeit Temperatur Bodentemp. Luftfeuchte Luftdruck Regen Wind Richtung Richtung Sonnenschein
23.06.2018 18:09 18,1 C 9,6 C 27 % 1023 hPa 0,0 l/m 12,1 km/h (2 Bft) N67.5 355 0 min
23.06.2018 18:04 18,1 C 9,6 C 28 % 1023 hPa 0,0 l/m 9,6 km/h (2 Bft) N-NW45 340 0 min
23.06.2018 17:59 18,2 C 9,5 C 20 % 1023 hPa 0,0 l/m 17,3 km/h (3 Bft) N-NW67.5 335 0 min
23.06.2018 17:54 18,3 C 9,7 C 14 % 1023 hPa 0,0 l/m 17,4 km/h (3 Bft) N67.5 350 0 min
23.06.2018 17:49 18,5 C 9,9 C 5 % 1023 hPa 0,0 l/m 16,8 km/h (3 Bft) N-NW67.5 330 5 min
23.06.2018 17:44 18,6 C 9,8 C 21 % 1023 hPa 0,0 l/m 15,9 km/h (3 Bft) N-NW45 340 5 min
23.06.2018 17:39 18,5 C 9,9 C 11 % 1023 hPa 0,0 l/m 37,3 km/h (5 Bft) N-NW45 335 5 min
23.06.2018 17:34 18,8 C 9,8 C 21 % 1023 hPa 0,0 l/m 15,8 km/h (3 Bft) NW67.5 320 5 min
23.06.2018 17:29 18,4 C 9,9 C 16 % 1023 hPa 0,0 l/m 20,1 km/h (4 Bft) N-NW67.5 335 5 min
23.06.2018 17:24 18,7 C 10,0 C 16 % 1023 hPa 0,0 l/m 20,5 km/h (4 Bft) N-NW67.5 330 5 min
23.06.2018 17:19 19,0 C 10,1 C 9 % 1023 hPa 0,0 l/m 27,0 km/h (5 Bft) NW45 305 5 min
23.06.2018 17:14 19,1 C 10,2 C 5 % 1023 hPa 0,0 l/m 17,6 km/h (3 Bft) N-NW67.5 340 5 min
23.06.2018 17:09 18,9 C 10,3 C 5 % 1023 hPa 0,0 l/m 27,5 km/h (5 Bft) NW45 320 5 min
23.06.2018 17:04 19,2 C 10,3 C 10 % 1023 hPa 0,0 l/m 32,4 km/h (5 Bft) NW45 315 5 min
23.06.2018 16:59 19,0 C 10,0 C 20 % 1023 hPa 0,0 l/m 23,0 km/h (4 Bft) NW45 305 5 min
23.06.2018 16:54 19,0 C 10,0 C 15 % 1024 hPa 0,0 l/m 25,7 km/h (4 Bft) NW67.5 305 5 min
23.06.2018 16:49 19,0 C 10,1 C 15 % 1023 hPa 0,0 l/m 22,0 km/h (4 Bft) N-NW22.5 330 5 min
23.06.2018 16:44 19,4 C 10,2 C 22 % 1023 hPa 0,0 l/m 16,3 km/h (3 Bft) N-NW67.5 330 5 min
23.06.2018 16:39 19,6 C 10,5 C 20 % 1023 hPa 0,0 l/m 15,3 km/h (3 Bft) W-NW67.5 295 5 min
23.06.2018 16:34 19,5 C 10,6 C 11 % 1023 hPa 0,0 l/m 23,6 km/h (4 Bft) W-NW45 295 5 min
23.06.2018 16:29 19,3 C 10,9 C 9 % 1023 hPa 0,0 l/m 20,1 km/h (4 Bft) NW45 320 5 min
23.06.2018 16:24 18,9 C 10,4 C 19 % 1023 hPa 0,0 l/m 20,1 km/h (4 Bft) NW45 320 5 min
23.06.2018 16:19 18,7 C 10,0 C 24 % 1024 hPa 0,0 l/m 16,0 km/h (3 Bft) NW45 325 5 min
23.06.2018 16:14 18,6 C 9,8 C 12 % 1024 hPa 0,0 l/m 19,3 km/h (3 Bft) N-NW67.5 330 5 min
23.06.2018 16:09 18,8 C 9,9 C 20 % 1024 hPa 0,0 l/m 23,4 km/h (4 Bft) NW67.5 315 5 min
23.06.2018 16:04 19,0 C 9,9 C 24 % 1024 hPa 0,0 l/m 20,9 km/h (4 Bft) NW45 325 5 min
23.06.2018 15:59 18,7 C 9,8 C 22 % 1024 hPa 0,0 l/m 24,3 km/h (4 Bft) W-NW67.5 295 5 min
23.06.2018 15:54 18,6 C 9,9 C 21 % 1024 hPa 0,0 l/m 22,1 km/h (4 Bft) NW45 320 5 min
23.06.2018 15:49 18,4 C 9,9 C 30 % 1024 hPa 0,0 l/m 24,0 km/h (4 Bft) N-NW67.5 330 5 min
23.06.2018 15:44 18,3 C 9,4 C 29 % 1024 hPa 0,0 l/m 18,0 km/h (3 Bft) N-NW45 335 5 min
23.06.2018 15:39 18,5 C 9,5 C 23 % 1024 hPa 0,0 l/m 22,3 km/h (4 Bft) W-NW45 285 5 min
23.06.2018 15:34 18,6 C 9,8 C 31 % 1024 hPa 0,0 l/m 28,7 km/h (5 Bft) NW45 315 5 min
23.06.2018 15:29 18,5 C 9,8 C 32 % 1024 hPa 0,0 l/m 22,0 km/h (4 Bft) NW45 310 5 min
23.06.2018 15:24 17,6 C 9,0 C 35 % 1024 hPa 0,0 l/m 21,5 km/h (4 Bft) W45 280 5 min
23.06.2018 15:19 18,1 C 9,1 C 33 % 1024 hPa 0,0 l/m 15,6 km/h (3 Bft) NW22.5 315 5 min
23.06.2018 15:14 18,6 C 9,5 C 31 % 1024 hPa 0,0 l/m 19,6 km/h (3 Bft) NW67.5 315 5 min
23.06.2018 15:09 18,3 C 9,4 C 32 % 1024 hPa 0,0 l/m 17,7 km/h (3 Bft) NW67.5 315 0 min
23.06.2018 15:04 18,0 C 9,1 C 32 % 1024 hPa 0,0 l/m 27,5 km/h (5 Bft) NW67.5 325 0 min
23.06.2018 14:59 18,0 C 9,4 C 33 % 1024 hPa 0,0 l/m 19,5 km/h (3 Bft) W-NW67.5 285 5 min
23.06.2018 14:54 18,3 C 9,6 C 33 % 1024 hPa 0,0 l/m 23,8 km/h (4 Bft) W-NW22.5 300 5 min
23.06.2018 14:49 18,0 C 9,3 C 36 % 1024 hPa 0,0 l/m 23,0 km/h (4 Bft) W-NW67.5 295 5 min
23.06.2018 14:44 17,9 C 9,2 C 36 % 1024 hPa 0,0 l/m 21,5 km/h (4 Bft) W-NW45 300 5 min
23.06.2018 14:39 17,9 C 9,2 C 35 % 1024 hPa 0,0 l/m 20,8 km/h (4 Bft) NW45 320 5 min
23.06.2018 14:34 18,1 C 9,4 C 36 % 1024 hPa 0,0 l/m 14,1 km/h (3 Bft) NW45 310 5 min
23.06.2018 14:29 17,9 C 9,3 C 37 % 1024 hPa 0,0 l/m 16,8 km/h (3 Bft) W-NW67.5 300 5 min
23.06.2018 14:24 17,6 C 8,9 C 38 % 1024 hPa 0,0 l/m 19,7 km/h (3 Bft) NW67.5 320 0 min
23.06.2018 14:19 17,0 C 8,6 C 40 % 1024 hPa 0,0 l/m 18,6 km/h (3 Bft) NW67.5 315 0 min
23.06.2018 14:14 17,1 C 8,6 C 39 % 1024 hPa 0,0 l/m 21,0 km/h (4 Bft) W-NW45 290 5 min
23.06.2018 14:09 17,5 C 9,1 C 38 % 1024 hPa 0,0 l/m 18,6 km/h (3 Bft) N-NW67.5 330 5 min
_ Min-Zeit 01:09 01:29 17:09 19:04 - 01:29 - - -
Minimum _ 10,2 C 4,8 C 5 % 1023 hPa - 6,1 km/h (2 Bft) - - -
_ Max-Zeit 16:39 16:29 09:29 22:09 19:04 17:39 - - 10:19
Maximum _ 19,6 C 10,9 C 95 % 1025 hPa 0,0 l/m 37,3 km/h
N-NW (5 Bft)
- - 5 min
Durchschnitt _ 14,0 C 6,9 C 59 % 1024 hPa #0,0 l/m 17,2 km/h (3 Bft) W - #5:45 h